Regional Weather Roundup
Issued by NWS

Home | Current Version | Previous Version | Graphics & Text | Print | Product List | Glossary Off
Versions: 1 2 3 4 5 6 7 8 9 10 11 12 13 14 15 16 17 18 19 20 21 22 23 24 25 26 27 28 29 30 31 32 33 34 35 36 37 38 39 40 41 42 43 44 45 46 47 48 49 50

000
ASUS43 KLSX 260359
RWRMO

WEATHER SUMMARY FOR MISSOURI
NATIONAL WEATHER SERVICE SPRINGFIELD MO
1000 PM CST THU DEC 25 2014

NOTE: "FAIR" INDICATES FEW OR NO CLOUDS BELOW 12,000 FEET WITH NO
       SIGNIFICANT WEATHER AND/OR OBSTRUCTIONS TO VISIBILITY.
       CURRENT SKY AND/OR WEATHER CONDITIONS ARE NOT AVAILABLE FOR
       CHILLICOTHE AND FARMINGTON.

MOZ001>031-035>038-043-044-053-054-260500-
...NORTHERN AND WESTERN MISSOURI...

CITY           SKY/WX    TMP DP  RH WIND       PRES   REMARKS
KANSAS CTY INT PTCLDY    48  30  49 S18       29.77R
KANSAS C DTWN  MOCLDY    51  29  42 S18       29.79R
LEE`S SUMMIT   CLOUDY    48  29  47 S16G23    29.81R
ST JOSEPH      CLEAR     44  31  60 S12       29.76R
CHILLICOTHE      N/A     47  31  53 S9        29.82R
KIRKSVILLE     PTCLDY    39  31  72 S10       29.85R

$$
MOZ066>068-077>081-088>096-101>105-260500-
...SOUTHWEST MISSOURI...

CITY           SKY/WX    TMP DP  RH WIND       PRES   REMARKS
SPRINGFIELD    CLOUDY    46  29  51 S20G25    29.89R
JOPLIN         MOCLDY    49  29  46 S20       29.88R

$$
MOZ032>034-039>042-045>050-055>058-069>072-260500-
...CENTRAL MISSOURI...

CITY           SKY/WX    TMP DP  RH WIND       PRES   REMARKS
COLUMBIA       PTCLDY    45  31  58 S14       29.90R
JEFFERSON CITY MOCLDY    47  30  51 S8        29.92R
ROLLA          CLOUDY    43  32  65 S18       29.92R
SEDALIA        MOCLDY    47  30  51 S15       29.87R
WARRENSBURG    CLOUDY    46  30  53 S14       29.84R
OSAGE BEACH    CLOUDY    46  28  49 S14       29.92R

$$
MOZ051-052-059>065-260500-
...EAST CENTRAL MISSOURI...

CITY           SKY/WX    TMP DP  RH WIND       PRES   REMARKS
ST LOUIS INTL  MOCLDY    45  36  70 SE13G18   29.99S
SPIRIT OF STL  CLOUDY    44  34  67 S8        29.97S
ST CHARLES     MOCLDY    42  36  79 S12       29.99R

$$
MOZ072>076-082>087-097>100-106>115-260500-
...SOUTH CENTRAL AND SOUTHEAST MISSOURI...

CITY           SKY/WX    TMP DP  RH WIND       PRES   REMARKS
CAPE GIRARDEAU PTCLDY    41  34  76 S8        30.10R
POPLAR BLUFF   MOCLDY    46  34  62 S16       30.08R
WEST PLAINS    PTCLDY    42  34  73 S12       30.00S

$$



USA.gov is the U.S. government's official web portal to all federal, state and local government web resources and services.